Palmdale, CA

5:34 PM PDT on October 20, 2017 (GMT -0700)
Palmdale Af Plant 42

Weather History for KPMD - June, 2012

Change the Weather History Date:

Saturday, June 23, 2012

  Actual Average Record
Temperature  
Mean Temperature 73 °F 77 °F  
Max Temperature 86 °F 93 °F 110 °F (1954)
Min Temperature 60 °F 61 °F 45 °F (1943)
Degree Days  
Heating Degree Days 0 0  
Month to date heating degree days 5 6  
Since 1 June heating degree days 5 6  
Since 1 July heating degree days 2824 2924  
Cooling Degree Days 8 12  
Month to date cooling degree days 264 217  
Year to date cooling degree days 511 387  
Since 1 June cooling degree days 264 217  
Growing Degree Days 22 (Base 50)    
Moisture  
Dew Point 43 °F    
Average Humidity 38    
Maximum Humidity 55    
Minimum Humidity 20    
Precipitation  
Precipitation 0.00 in 0.01 in 0.00 in (2017)
Month to date precipitation 0.00 0.09  
Year to date precipitation 1.79 5.32  
Since 1 July precipitation 3.72  
Snow  
Snow 0.00 in - 0.00 in (1973)
Month to date snowfall 0.0  
Since 1 June snowfall 0.0  
Since 1 July snowfall 0.0  
Snow Depth 0.00 in    
Sea Level Pressure  
Sea Level Pressure 29.76 in    
Wind  
Wind Speed 11 mph (WSW)    
Max Wind Speed 26 mph    
Max Gust Speed 33 mph    
Visibility 10 miles    
Events      
T = Trace of Precipitation, MM = Missing Value Source: NWS Daily Summary

Daily Weather History Graph

Daily Weather History Graph

Search for Another Location

Airport or City:

Trip Planner

Search our weather history database for the weather conditions in past years. The results will help you decide how hot, cold, wet, or windy it might be!

Date:

Astronomy

Jun. 23, 2012 Rise Set
Actual Time 5:40 AM PDT 8:08 PM PDT
Civil Twilight 5:10 AM PDT 8:38 PM PDT
Nautical Twilight 4:34 AM PDT 9:14 PM PDT
Astronomical Twilight 3:54 AM PDT 9:55 PM PDT
Moon 9:37 AM PDT (6/23) 10:51 PM PDT (6/23)
Length of Visible Light 15h 27m
Length of Day
14h 28m
Waxing Crescent, 17% of the Moon is Illuminated
Jun 23
Waxing Crescent
Jun 26
First Quarter
Jul 3
Full
Jul 10
Last Quarter
Jul 18
New

Hourly Weather History & Observations

Time (PDT) Temp. Dew Point Humidity Pressure Visibility Wind Dir Wind Speed Gust Speed Precip Events Conditions
12:53 AM 68.0 °F 44.1 °F 42% 29.73 in 10.0 mi WSW 12.7 mph - N/A   Clear
1:53 AM 66.0 °F 46.0 °F 48% 29.73 in 10.0 mi WSW 6.9 mph - N/A   Clear
2:53 AM 63.0 °F 41.0 °F 45% 29.73 in 10.0 mi West 9.2 mph - N/A   Clear
3:53 AM 62.1 °F 43.0 °F 50% 29.73 in 10.0 mi WSW 5.8 mph - N/A   Clear
4:53 AM 61.0 °F 44.1 °F 54% 29.73 in 10.0 mi South 3.5 mph - N/A   Clear
5:53 AM 62.1 °F 43.0 °F 50% 29.74 in 10.0 mi Calm Calm - N/A   Clear
6:53 AM 63.0 °F 43.0 °F 48% 29.75 in 10.0 mi WSW 3.5 mph - N/A   Clear
7:53 AM 69.1 °F 43.0 °F 39% 29.75 in 10.0 mi SW 8.1 mph - N/A   Clear
8:53 AM 73.9 °F 39.0 °F 28% 29.75 in 10.0 mi WNW 5.8 mph - N/A   Clear
9:53 AM 77.0 °F 39.0 °F 25% 29.75 in 10.0 mi Variable 6.9 mph - N/A   Clear
10:53 AM 80.6 °F 35.6 °F 20% 29.82 in 10.0 mi WSW 12.7 mph 20.7 mph N/A   Clear
11:53 AM 82.0 °F 37.9 °F 21% 29.75 in 10.0 mi WSW 15.0 mph 27.6 mph N/A   Clear
12:53 PM 84.0 °F 42.1 °F 23% 29.74 in 10.0 mi SW 15.0 mph 21.9 mph N/A   Clear
1:53 PM 84.0 °F 39.0 °F 20% 29.74 in 10.0 mi SW 17.3 mph 23.0 mph N/A   Clear
2:53 PM 84.9 °F 42.1 °F 22% 29.72 in 10.0 mi WSW 20.7 mph 29.9 mph N/A   Clear
3:53 PM 84.9 °F 42.1 °F 22% 29.73 in 10.0 mi SW 20.7 mph 28.8 mph N/A   Clear
4:53 PM 82.9 °F 42.1 °F 24% 29.73 in 10.0 mi SW 19.6 mph 25.3 mph N/A   Clear
5:53 PM 82.0 °F 42.1 °F 24% 29.73 in 10.0 mi WSW 13.8 mph 23.0 mph N/A   Clear
6:53 PM 77.0 °F 46.9 °F 34% 29.76 in 10.0 mi West 12.7 mph 23.0 mph N/A   Clear
7:53 PM 73.0 °F 46.0 °F 38% 29.78 in 10.0 mi WNW 10.4 mph - N/A   Clear
8:53 PM 70.0 °F 45.0 °F 41% 29.79 in 10.0 mi WNW 12.7 mph - N/A   Clear
9:53 PM 69.1 °F 44.1 °F 40% 29.81 in 10.0 mi West 11.5 mph - N/A   Clear
10:53 PM 66.9 °F 46.0 °F 47% 29.82 in 10.0 mi West 10.4 mph 17.3 mph N/A   Clear
11:53 PM 66.9 °F 46.0 °F 47% 29.82 in 10.0 mi West 12.7 mph 19.6 mph N/A   Clear